Location: Charbonni�res
(45.9952°N, 2.9982°E)
Time: 17:07:23
(UTC+00:00)

Cosmos 2112 Rocket - Pass Details

Date: 29 November 2020
Orbit: 756 x 787 km, 74.1° (Epoch: 17 January)

Event Time Altitude Azimuth Distance (km) Brightness Sun altitude
Exits shadow 04:38:55 28° 353° (N) 1,460 5.3 -25.1°
Maximum altitude 04:41:44 63° 66° (ENE) 877 4.4 -24.6°
Drops below altitude 10° 04:47:01 10° 147° (SSE) 2,339 7.0 -23.7°
Sets 04:49:25 0° 151° (SSE) 3,260 7.8 -23.3°
